�������l�o���
Date,Time,MP-1(��Sv/h),MP-2(��Sv/h),MP-3(��Sv/h),MP-4(��Sv/h),MP-5(��Sv/h),MP-6(��Sv/h),MP-7(��Sv/h),MP-8(��Sv/h),����,����(m/s),���J
2019/12/25,00:00,0.699,1.010,0.679,1.274,0.886,0.402,0.710,0.673,��,6.1,��
2019/12/25,00:10,0.699,1.010,0.680,1.275,0.888,0.401,0.707,0.675,��,6.3,��
2019/12/25,00:20,0.700,1.012,0.678,1.275,0.887,0.401,0.709,0.674,���쐼,6.1,��
2019/12/25,00:30,0.700,1.012,0.680,1.276,0.889,0.400,0.707,0.674,��,6.4,��
2019/12/25,00:40,0.700,1.011,0.681,1.276,0.885,0.402,0.709,0.674,��,6.6,��
2019/12/25,00:50,0.698,1.008,0.680,1.276,0.886,0.402,0.710,0.674,��,6.9,��
2019/12/25,01:00,0.699,1.010,0.680,1.274,0.887,0.400,0.709,0.674,���쐼,6.9,��
2019/12/25,01:10,0.700,1.009,0.679,1.277,0.889,0.403,0.709,0.674,���쐼,6.9,��
2019/12/25,01:20,0.699,1.010,0.679,1.274,0.886,0.402,0.708,0.672,���쐼,6.3,��
2019/12/25,01:30,0.699,1.009,0.681,1.276,0.887,0.401,0.707,0.674,���쐼,7.1,��
2019/12/25,01:40,0.699,1.007,0.680,1.275,0.887,0.402,0.708,0.675,��,7.4,��
2019/12/25,01:50,0.701,1.009,0.679,1.277,0.888,0.402,0.709,0.674,��,8.0,��
2019/12/25,02:00,0.701,1.010,0.679,1.275,0.886,0.400,0.708,0.673,��,8.6,��
2019/12/25,02:10,0.699,1.009,0.679,1.277,0.888,0.403,0.709,0.673,��,8.0,��
2019/12/25,02:20,0.698,1.009,0.678,1.276,0.887,0.401,0.708,0.674,��,8.3,��
2019/12/25,02:30,0.698,1.009,0.680,1.276,0.889,0.400,0.711,0.674,��,8.2,��
2019/12/25,02:40,0.700,1.009,0.679,1.275,0.887,0.402,0.711,0.675,��,6.6,��
2019/12/25,02:50,0.698,1.009,0.680,1.275,0.888,0.402,0.710,0.673,��,8.0,��
2019/12/25,03:00,0.700,1.011,0.679,1.275,0.887,0.403,0.711,0.673,��,7.4,��
2019/12/25,03:10,0.698,1.007,0.679,1.276,0.886,0.402,0.711,0.675,���k��,8.6,��
2019/12/25,03:20,0.699,1.009,0.680,1.276,0.887,0.402,0.710,0.676,���k��,9.4,��
2019/12/25,03:30,0.700,1.008,0.679,1.278,0.887,0.402,0.711,0.673,���k��,8.3,��
2019/12/25,03:40,0.700,1.010,0.678,1.275,0.887,0.401,0.710,0.675,���k��,7.7,��
2019/12/25,03:50,0.699,1.010,0.679,1.275,0.886,0.402,0.710,0.675,���k��,7.1,��
2019/12/25,04:00,0.699,1.010,0.679,1.276,0.886,0.401,0.711,0.675,��,6.6,��
2019/12/25,04:10,0.699,1.010,0.679,1.274,0.887,0.403,0.709,0.675,��,5.5,��
2019/12/25,04:20,0.696,1.009,0.680,1.276,0.887,0.404,0.712,0.675,���k��,4.9,��
2019/12/25,04:30,0.699,1.010,0.679,1.280,0.884,0.403,0.709,0.674,��,6.1,��
2019/12/25,04:40,0.698,1.009,0.681,1.277,0.886,0.402,0.708,0.673,��,4.1,��
2019/12/25,04:50,0.700,1.009,0.678,1.275,0.885,0.403,0.710,0.675,���쐼,3.3,��
2019/12/25,05:00,0.700,1.009,0.679,1.276,0.885,0.401,0.710,0.674,�쐼,4.1,��
2019/12/25,05:10,0.701,1.010,0.679,1.274,0.886,0.402,0.708,0.676,���쐼,5.2,��
2019/12/25,05:20,0.700,1.009,0.678,1.276,0.886,0.401,0.710,0.675,���쐼,5.5,��
2019/12/25,05:30,0.699,1.007,0.680,1.274,0.884,0.402,0.709,0.674,���쐼,5.2,��
2019/12/25,05:40,0.698,1.010,0.680,1.275,0.884,0.401,0.709,0.675,���쐼,6.6,��
2019/12/25,05:50,0.698,1.009,0.680,1.275,0.886,0.402,0.710,0.675,���쐼,6.3,��
2019/12/25,06:00,0.697,1.009,0.679,1.275,0.883,0.402,0.709,0.674,���쐼,5.2,��
2019/12/25,06:10,0.697,1.006,0.680,1.273,0.884,0.401,0.710,0.675,���쐼,4.1,��
2019/12/25,06:20,0.697,1.006,0.678,1.273,0.885,0.400,0.709,0.673,��,2.6,��
2019/12/25,06:30,0.699,1.010,0.679,1.275,0.886,0.402,0.709,0.676,��,2.2,��
2019/12/25,06:40,0.698,1.005,0.679,1.275,0.885,0.401,0.708,0.675,��,2.9,��
2019/12/25,06:50,0.697,1.009,0.677,1.276,0.887,0.401,0.709,0.674,���쐼,3.4,��
2019/12/25,07:00,0.698,1.006,0.676,1.274,0.886,0.401,0.710,0.673,���쐼,5.6,��
2019/12/25,07:10,0.697,1.008,0.679,1.276,0.885,0.402,0.708,0.674,���쐼,5.5,��
2019/12/25,07:20,0.698,1.008,0.679,1.274,0.884,0.402,0.709,0.674,�쐼,4.1,��
2019/12/25,07:30,0.698,1.007,0.677,1.275,0.884,0.402,0.707,0.674,���쐼,3.8,��
2019/12/25,07:40,0.697,1.007,0.679,1.274,0.885,0.400,0.708,0.674,��,3.3,��
2019/12/25,07:50,0.699,1.007,0.679,1.276,0.885,0.400,0.709,0.673,���k��,1.9,��
2019/12/25,08:00,0.698,1.008,0.679,1.276,0.884,0.400,0.710,0.674,��,2.6,��
2019/12/25,08:10,0.698,1.008,0.678,1.273,0.884,0.400,0.710,0.675,��,3.3,��
2019/12/25,08:20,0.698,1.009,0.679,1.277,0.886,0.400,0.710,0.674,��,3.1,��
2019/12/25,08:30,0.700,1.010,0.677,1.274,0.885,0.400,0.710,0.675,��,0.7,��
2019/12/25,08:40,0.700,1.009,0.677,1.275,0.885,0.400,0.709,0.675,�k��,0.7,��
2019/12/25,08:50,0.701,1.006,0.679,1.275,0.886,0.399,0.710,0.675,-,CALM,��
2019/12/25,09:00,0.701,1.010,0.677,1.276,0.885,0.401,0.710,0.675,-,CALM,��
2019/12/25,09:10,0.701,1.008,0.678,1.276,0.888,0.400,0.709,0.674,�k�k��,0.9,��
2019/12/25,09:20,0.703,1.010,0.679,1.275,0.888,0.399,0.712,0.676,�쓌,0.9,��
2019/12/25,09:30,0.701,1.006,0.678,1.275,0.887,0.400,0.710,0.674,���쓌,1.1,��
2019/12/25,09:40,0.702,1.012,0.678,1.276,0.888,0.400,0.710,0.675,�쓌,1.6,��
2019/12/25,09:50,0.702,1.009,0.682,1.276,0.888,0.401,0.711,0.675,���쓌,1.5,��
2019/12/25,10:00,0.701,1.008,0.678,1.279,0.890,0.401,0.711,0.676,��,1.6,��
2019/12/25,10:10,0.703,1.007,0.679,1.277,0.888,0.401,0.708,0.673,���쓌,2.0,��
2019/12/25,10:20,0.703,1.007,0.681,1.279,0.887,0.403,0.708,0.675,��,1.7,��
2019/12/25,10:30,0.700,1.008,0.680,1.278,0.888,0.401,0.710,0.675,��,1.2,��
2019/12/25,10:40,0.702,1.008,0.682,1.276,0.885,0.404,0.709,0.674,���k��,1.5,��
2019/12/25,10:50,0.702,1.008,0.679,1.275,0.889,0.403,0.709,0.675,�k��,1.8,��
2019/12/25,11:00,0.702,1.008,0.681,1.277,0.891,0.402,0.710,0.676,��,1.8,��
2019/12/25,11:10,0.703,1.008,0.681,1.276,0.890,0.402,0.710,0.674,���쓌,2.1,��
2019/12/25,11:20,0.704,1.008,0.678,1.278,0.891,0.404,0.709,0.675,�쓌,2.1,��
2019/12/25,11:30,0.702,1.010,0.679,1.278,0.892,0.403,0.710,0.676,�쓌,1.9,��
2019/12/25,11:40,0.704,1.009,0.680,1.277,0.891,0.404,0.711,0.675,�쓌,2.1,��
2019/12/25,11:50,0.702,1.012,0.680,1.276,0.891,0.404,0.711,0.675,��쓌,2.1,��
2019/12/25,12:00,0.703,1.005,0.681,1.276,0.893,0.404,0.711,0.676,�쓌,3.1,��
2019/12/25,12:10,0.703,1.012,0.682,1.277,0.892,0.403,0.711,0.676,��쓌,4.5,��
2019/12/25,12:20,0.705,1.012,0.681,1.277,0.892,0.405,0.712,0.677,��쓌,4.7,��
2019/12/25,12:30,0.705,1.013,0.682,1.279,0.892,0.405,0.711,0.676,��쓌,4.0,��
2019/12/25,12:40,0.704,1.014,0.682,1.278,0.891,0.404,0.713,0.676,��,5.5,��
2019/12/25,12:50,0.704,1.012,0.683,1.278,0.893,0.406,0.714,0.676,��쓌,6.1,��
2019/12/25,13:00,0.704,1.012,0.682,1.279,0.894,0.403,0.714,0.674,��쓌,5.5,��
2019/12/25,13:10,0.706,1.014,0.681,1.278,0.891,0.405,0.713,0.675,��쓌,5.5,��
2019/12/25,13:20,0.704,1.012,0.678,1.276,0.894,0.403,0.713,0.674,��,4.7,��
2019/12/25,13:30,0.708,1.014,0.676,1.275,0.893,0.405,0.712,0.675,��,6.0,��
2019/12/25,13:40,0.705,1.013,0.678,1.278,0.895,0.404,0.713,0.675,��쓌,5.6,��
2019/12/25,13:50,0.705,1.016,0.683,1.279,0.892,0.408,0.713,0.677,��쓌,5.2,��
2019/12/25,14:00,0.704,1.014,0.684,1.279,0.892,0.406,0.713,0.677,��쓌,5.8,��
2019/12/25,14:10,0.708,1.018,0.684,1.279,0.894,0.406,0.713,0.675,��쓌,6.3,��
2019/12/25,14:20,0.708,1.015,0.682,1.281,0.893,0.406,0.713,0.677,��쓌,6.1,��
2019/12/25,14:30,0.706,1.016,0.684,1.279,0.895,0.408,0.713,0.675,��쓌,5.8,��
2019/12/25,14:40,0.706,1.020,0.682,1.278,0.895,0.407,0.712,0.675,��쓌,5.8,��
2019/12/25,14:50,0.707,1.018,0.685,1.278,0.895,0.408,0.713,0.677,��,5.8,��
2019/12/25,15:00,0.709,1.016,0.682,1.277,0.895,0.406,0.714,0.675,��,6.4,��
2019/12/25,15:10,0.708,1.019,0.682,1.277,0.894,0.409,0.712,0.677,��,7.4,��
2019/12/25,15:20,0.708,1.019,0.685,1.279,0.891,0.409,0.713,0.676,��,6.3,��
2019/12/25,15:30,0.708,1.020,0.685,1.278,0.892,0.407,0.712,0.677,��,6.1,��
2019/12/25,15:40,0.708,1.019,0.682,1.280,0.894,0.407,0.714,0.677,��,6.6,��
2019/12/25,15:50,0.707,1.020,0.683,1.277,0.893,0.408,0.715,0.676,��,5.5,��
2019/12/25,16:00,0.706,1.020,0.684,1.277,0.895,0.408,0.715,0.678,��,6.6,��
2019/12/25,16:10,0.706,1.018,0.683,1.277,0.894,0.407,0.712,0.676,��,5.8,��
2019/12/25,16:20,0.707,1.019,0.684,1.280,0.894,0.408,0.714,0.678,��,6.9,��
2019/12/25,16:30,0.706,1.020,0.682,1.276,0.893,0.406,0.714,0.676,��,8.0,��
2019/12/25,16:40,0.705,1.021,0.682,1.278,0.895,0.408,0.713,0.677,��,9.7,��
2019/12/25,16:50,0.709,1.021,0.683,1.281,0.893,0.408,0.714,0.676,��,8.8,��
2019/12/25,17:00,0.705,1.021,0.686,1.278,0.894,0.409,0.713,0.676,��,9.4,��
2019/12/25,17:10,0.707,1.020,0.684,1.281,0.895,0.407,0.714,0.676,��,8.8,��
2019/12/25,17:20,0.709,1.019,0.684,1.278,0.895,0.407,0.712,0.676,��,8.5,��
2019/12/25,17:30,0.707,1.018,0.686,1.279,0.895,0.407,0.714,0.675,��,7.8,��
2019/12/25,17:40,0.709,1.021,0.683,1.277,0.894,0.409,0.715,0.675,��,8.0,��
2019/12/25,17:50,0.706,1.020,0.686,1.280,0.894,0.409,0.714,0.676,��쐼,8.9,��
2019/12/25,18:00,0.707,1.018,0.685,1.279,0.895,0.408,0.713,0.676,��,9.6,��
2019/12/25,18:10,0.706,1.020,0.685,1.278,0.895,0.408,0.714,0.677,��,8.8,��
2019/12/25,18:20,0.707,1.019,0.685,1.279,0.896,0.409,0.713,0.675,��,8.5,��
2019/12/25,18:30,0.708,1.019,0.686,1.280,0.895,0.407,0.713,0.678,��쐼,9.1,��
2019/12/25,18:40,0.708,1.019,0.686,1.278,0.896,0.407,0.713,0.678,��,9.4,��
2019/12/25,18:50,0.707,1.023,0.685,1.279,0.896,0.409,0.715,0.676,��쐼,9.4,��
2019/12/25,19:00,0.708,1.021,0.684,1.279,0.897,0.408,0.714,0.676,��쐼,9.3,��
2019/12/25,19:10,0.706,1.020,0.684,1.278,0.896,0.409,0.715,0.675,��쐼,8.2,��
2019/12/25,19:20,0.708,1.019,0.685,1.279,0.896,0.409,0.713,0.677,��쐼,8.2,��
2019/12/25,19:30,0.706,1.019,0.686,1.281,0.895,0.408,0.712,0.678,��쐼,8.2,��
2019/12/25,19:40,0.709,1.018,0.687,1.281,0.896,0.409,0.714,0.677,��쐼,9.1,��
2019/12/25,19:50,0.706,1.021,0.685,1.280,0.896,0.407,0.715,0.677,��쐼,9.6,��
2019/12/25,20:00,0.709,1.022,0.683,1.281,0.895,0.408,0.714,0.676,��쐼,10.4,��
2019/12/25,20:10,0.709,1.018,0.686,1.278,0.895,0.411,0.716,0.676,��쐼,10.1,��
2019/12/25,20:20,0.709,1.020,0.686,1.281,0.896,0.409,0.714,0.677,��쐼,10.1,��
2019/12/25,20:30,0.709,1.017,0.686,1.280,0.897,0.410,0.715,0.677,��쐼,10.4,��
2019/12/25,20:40,0.708,1.018,0.686,1.280,0.897,0.407,0.714,0.676,��,11.0,��
2019/12/25,20:50,0.710,1.018,0.684,1.282,0.899,0.409,0.715,0.677,��쐼,11.1,��
2019/12/25,21:00,0.707,1.019,0.685,1.279,0.896,0.409,0.715,0.677,��,12.5,��
2019/12/25,21:10,0.707,1.018,0.685,1.280,0.896,0.408,0.717,0.676,��,11.1,��
2019/12/25,21:20,0.709,1.018,0.687,1.280,0.897,0.410,0.716,0.676,��,11.8,��
2019/12/25,21:30,0.708,1.018,0.686,1.279,0.897,0.411,0.715,0.679,��,12.2,��
2019/12/25,21:40,0.710,1.020,0.687,1.281,0.898,0.408,0.716,0.676,��,11.6,��
2019/12/25,21:50,0.709,1.019,0.687,1.281,0.899,0.409,0.716,0.678,��,11.6,��
2019/12/25,22:00,0.708,1.019,0.686,1.280,0.896,0.409,0.717,0.677,��,9.4,��
2019/12/25,22:10,0.709,1.019,0.686,1.280,0.897,0.410,0.714,0.676,��,9.1,��
2019/12/25,22:20,0.708,1.018,0.685,1.281,0.897,0.409,0.715,0.675,��쐼,9.1,��
2019/12/25,22:30,0.710,1.020,0.685,1.280,0.897,0.410,0.715,0.677,��,8.5,��
2019/12/25,22:40,0.709,1.020,0.688,1.280,0.897,0.411,0.716,0.678,��쐼,9.1,��
2019/12/25,22:50,0.709,1.019,0.686,1.282,0.899,0.409,0.715,0.677,��쐼,8.6,��
2019/12/25,23:00,0.709,1.021,0.686,1.281,0.899,0.411,0.717,0.677,��쐼,7.7,��
2019/12/25,23:10,0.709,1.019,0.687,1.280,0.898,0.409,0.716,0.677,��,10.1,��
2019/12/25,23:20,0.709,1.021,0.687,1.282,0.897,0.411,0.715,0.677,��쐼,8.5,��
2019/12/25,23:30,0.710,1.021,0.687,1.280,0.895,0.409,0.715,0.676,��쐼,8.8,��
2019/12/25,23:40,0.711,1.020,0.685,1.282,0.898,0.411,0.716,0.678,��쐼,8.9,��
2019/12/25,23:50,0.710,1.020,0.687,1.281,0.898,0.410,0.714,0.677,��쐼,8.8,��
